Time,TemperatureF,DewpointF,PressureIn,WindDirection,WindDirectionDegrees,WindSpeedMPH,WindSpeedGustMPH,Humidity,HourlyPrecipIn,Conditions,Clouds,dailyrainin,SoftwareType,DateUTC
2013-08-29 00:01:00,66.4,66.1,30.41,NW,317,0.0,0.0,99,0.00,CLR,,0.00,WeatherDisplay:10.37,2013-08-29 04:01:00,
2013-08-29 00:02:00,66.5,66.2,30.41,NW,317,0.0,0.0,99,0.00,CLR,,0.00,WeatherDisplay:10.37,2013-08-29 04:02:00,
2013-08-29 00:07:00,66.0,65.4,30.41,NW,317,0.0,0.0,98,0.00,CLR,,0.00,WeatherDisplay:10.37,2013-08-29 04:07:00,
2013-08-29 00:12:00,65.8,65.2,30.41,NW,317,0.0,0.0,98,0.00,CLR,,0.00,WeatherDisplay:10.37,2013-08-29 04:12:00,
2013-08-29 00:17:00,65.8,65.2,30.41,NW,317,0.0,0.0,98,0.00,CLR,,0.00,WeatherDisplay:10.37,2013-08-29 04:17:00,
2013-08-29 00:22:00,65.6,65.0,30.41,NW,317,0.0,0.0,98,0.00,CLR,,0.00,WeatherDisplay:10.37,2013-08-29 04:22:00,
2013-08-29 00:27:00,65.5,64.9,30.41,NW,317,0.0,0.0,98,0.00,CLR,,0.00,WeatherDisplay:10.37,2013-08-29 04:27:00,
2013-08-29 00:32:00,65.5,64.9,30.41,NW,317,0.0,0.0,98,0.00,CLR,,0.00,WeatherDisplay:10.37,2013-08-29 04:32:00,
2013-08-29 00:37:00,65.5,64.9,30.41,NW,317,0.0,0.0,98,0.00,CLR,,0.00,WeatherDisplay:10.37,2013-08-29 04:37:00,
2013-08-29 00:42:00,65.2,64.6,30.41,NW,317,0.0,0.0,98,0.00,CLR,,0.00,WeatherDisplay:10.37,2013-08-29 04:42:00,
2013-08-29 00:47:00,65.1,64.5,30.41,NW,317,0.0,0.0,98,0.00,CLR,,0.00,WeatherDisplay:10.37,2013-08-29 04:47:00,
2013-08-29 00:52:00,65.0,64.4,30.41,NW,317,0.0,0.0,98,0.00,CLR,,0.00,WeatherDisplay:10.37,2013-08-29 04:52:00,
2013-08-29 00:57:00,64.8,64.2,30.42,NW,317,0.0,0.0,98,0.00,CLR,,0.00,WeatherDisplay:10.37,2013-08-29 04:57:00,
2013-08-29 01:02:00,64.7,64.1,30.42,NW,317,0.0,0.0,98,0.00,CLR,,0.00,WeatherDisplay:10.37,2013-08-29 05:02:00,
2013-08-29 01:07:00,65.0,64.4,30.42,NW,317,0.0,0.0,98,0.00,CLR,,0.00,WeatherDisplay:10.37,2013-08-29 05:07:00,
2013-08-29 01:12:00,65.0,64.4,30.42,NW,317,0.0,0.0,98,0.00,CLR,,0.00,WeatherDisplay:10.37,2013-08-29 05:12:00,
2013-08-29 01:17:00,65.0,64.7,30.42,NW,317,0.0,0.0,99,0.00,CLR,,0.00,WeatherDisplay:10.37,2013-08-29 05:17:00,
2013-08-29 01:22:00,65.4,65.1,30.42,NW,317,0.0,0.0,99,0.00,CLR,,0.00,WeatherDisplay:10.37,2013-08-29 05:22:00,
2013-08-29 01:27:00,65.6,65.3,30.42,NW,317,0.0,0.0,99,0.00,CLR,,0.00,WeatherDisplay:10.37,2013-08-29 05:27:00,
2013-08-29 01:32:00,64.7,64.1,30.42,NW,317,0.0,0.0,98,0.00,CLR,,0.00,WeatherDisplay:10.37,2013-08-29 05:32:00,
2013-08-29 01:37:00,63.9,63.3,30.42,NW,317,0.0,0.0,98,0.00,CLR,,0.00,WeatherDisplay:10.37,2013-08-29 05:37:00,
2013-08-29 01:42:00,63.7,63.1,30.42,NW,317,0.0,0.0,98,0.00,CLR,,0.00,WeatherDisplay:10.37,2013-08-29 05:42:00,
2013-08-29 01:47:00,63.9,63.3,30.42,NW,317,0.0,0.0,98,0.00,CLR,,0.00,WeatherDisplay:10.37,2013-08-29 05:47:00,
2013-08-29 01:52:00,64.2,63.6,30.42,NW,317,0.0,0.0,98,0.00,CLR,,0.00,WeatherDisplay:10.37,2013-08-29 05:52:00,
2013-08-29 01:57:00,64.0,63.4,30.42,NW,317,0.0,0.0,98,0.00,CLR,,0.00,WeatherDisplay:10.37,2013-08-29 05:57:00,
2013-08-29 02:02:00,63.8,63.2,30.42,NW,317,0.0,0.0,98,0.00,FEW,,0.00,WeatherDisplay:10.37,2013-08-29 06:02:00,
2013-08-29 02:07:00,64.0,63.7,30.42,NW,317,0.0,0.0,99,0.00,FEW,,0.00,WeatherDisplay:10.37,2013-08-29 06:07:00,
2013-08-29 02:12:00,63.9,63.6,30.42,NW,317,0.0,0.0,99,0.00,FEW,,0.00,WeatherDisplay:10.37,2013-08-29 06:12:00,
2013-08-29 02:17:00,63.9,63.6,30.42,NW,317,0.0,0.0,99,0.00,FEW,,0.00,WeatherDisplay:10.37,2013-08-29 06:17:00,
2013-08-29 02:22:00,64.2,63.9,30.42,NW,317,0.0,0.0,99,0.00,FEW,,0.00,WeatherDisplay:10.37,2013-08-29 06:22:00,
2013-08-29 02:27:00,64.2,63.9,30.42,NW,317,0.0,0.0,99,0.00,FEW,,0.00,WeatherDisplay:10.37,2013-08-29 06:27:00,
2013-08-29 02:32:00,64.1,63.8,30.41,NW,317,0.0,0.0,99,0.00,FEW,,0.00,WeatherDisplay:10.37,2013-08-29 06:32:00,
2013-08-29 02:37:00,64.3,64.0,30.41,NW,317,0.0,0.0,99,0.00,FEW,,0.00,WeatherDisplay:10.37,2013-08-29 06:37:00,
2013-08-29 02:42:00,64.9,64.6,30.42,NW,317,0.0,0.0,99,0.00,FEW,,0.00,WeatherDisplay:10.37,2013-08-29 06:42:00,
2013-08-29 02:47:00,64.8,64.5,30.41,NW,317,0.0,0.0,99,0.00,FEW,,0.00,WeatherDisplay:10.37,2013-08-29 06:47:00,
2013-08-29 02:52:00,64.4,64.1,30.41,NW,317,0.0,0.0,99,0.00,FEW,,0.00,WeatherDisplay:10.37,2013-08-29 06:52:00,
2013-08-29 02:57:00,64.5,64.2,30.41,NW,317,0.0,0.0,99,0.00,FEW,,0.00,WeatherDisplay:10.37,2013-08-29 06:57:00,
2013-08-29 03:02:00,64.4,64.1,30.41,NW,317,0.0,0.0,99,0.00,CLR,,0.00,WeatherDisplay:10.37,2013-08-29 07:02:00,
2013-08-29 03:07:00,64.0,63.7,30.41,NW,317,0.0,0.0,99,0.00,CLR,,0.00,WeatherDisplay:10.37,2013-08-29 07:07:00,
2013-08-29 03:12:00,63.6,63.3,30.41,NW,317,0.0,0.0,99,0.00,CLR,,0.00,WeatherDisplay:10.37,2013-08-29 07:12:00,
2013-08-29 03:17:00,63.5,63.2,30.41,NW,317,0.0,0.0,99,0.00,CLR,,0.00,WeatherDisplay:10.37,2013-08-29 07:17:00,
2013-08-29 03:22:00,63.3,63.0,30.42,NW,317,0.0,0.0,99,0.00,CLR,,0.00,WeatherDisplay:10.37,2013-08-29 07:22:00,
2013-08-29 03:27:00,63.2,62.9,30.42,NW,317,0.0,0.0,99,0.00,CLR,,0.00,WeatherDisplay:10.37,2013-08-29 07:27:00,
2013-08-29 03:32:00,63.0,62.7,30.41,NW,317,0.0,0.0,99,0.00,CLR,,0.00,WeatherDisplay:10.37,2013-08-29 07:32:00,
2013-08-29 03:37:00,63.2,62.9,30.41,NW,317,0.0,0.0,99,0.00,CLR,,0.00,WeatherDisplay:10.37,2013-08-29 07:37:00,
2013-08-29 03:42:00,64.1,63.8,30.41,NW,317,0.0,0.0,99,0.00,CLR,,0.00,WeatherDisplay:10.37,2013-08-29 07:42:00,
2013-08-29 03:47:00,64.3,64.0,30.42,NW,317,0.0,0.0,99,0.00,CLR,,0.00,WeatherDisplay:10.37,2013-08-29 07:47:00,
2013-08-29 03:52:00,63.6,63.3,30.41,NW,317,0.0,0.0,99,0.00,CLR,,0.00,WeatherDisplay:10.37,2013-08-29 07:52:00,
2013-08-29 03:57:00,63.3,63.0,30.42,NW,317,0.0,0.0,99,0.00,CLR,,0.00,WeatherDisplay:10.37,2013-08-29 07:57:00,
2013-08-29 04:02:00,63.1,62.8,30.42,NW,317,0.0,0.0,99,0.00,FEW,,0.00,WeatherDisplay:10.37,2013-08-29 08:02:00,
2013-08-29 04:07:00,63.2,62.9,30.42,NW,317,0.0,0.0,99,0.00,FEW,,0.00,WeatherDisplay:10.37,2013-08-29 08:07:00,
2013-08-29 04:12:00,63.7,63.4,30.42,NW,317,0.0,0.0,99,0.00,FEW,,0.00,WeatherDisplay:10.37,2013-08-29 08:12:00,
2013-08-29 04:17:00,64.3,64.0,30.42,NW,317,1.2,0.0,99,0.00,FEW,,0.00,WeatherDisplay:10.37,2013-08-29 08:17:00,
2013-08-29 04:22:00,64.6,64.3,30.42,NW,317,0.0,0.0,99,0.00,FEW,,0.00,WeatherDisplay:10.37,2013-08-29 08:22:00,
2013-08-29 04:27:00,64.8,64.5,30.42,NW,317,0.0,0.0,99,0.00,FEW,,0.00,WeatherDisplay:10.37,2013-08-29 08:27:00,
2013-08-29 04:32:00,65.1,64.8,30.43,NW,317,0.0,0.0,99,0.00,FEW,,0.00,WeatherDisplay:10.37,2013-08-29 08:32:00,
2013-08-29 04:37:00,64.9,64.6,30.43,NW,317,0.0,0.0,99,0.00,FEW,,0.00,WeatherDisplay:10.37,2013-08-29 08:37:00,
2013-08-29 04:42:00,64.5,64.2,30.43,NW,317,0.0,0.0,99,0.00,FEW,,0.00,WeatherDisplay:10.37,2013-08-29 08:42:00,
2013-08-29 04:47:00,64.1,63.8,30.43,NW,317,0.0,0.0,99,0.01,RA,,0.01,WeatherDisplay:10.37,2013-08-29 08:47:00,
2013-08-29 04:52:00,64.7,64.4,30.43,NW,317,1.2,0.0,99,0.01,RA,,0.01,WeatherDisplay:10.37,2013-08-29 08:52:00,
2013-08-29 04:57:00,65.1,64.8,30.43,NW,317,0.0,0.0,99,0.01,FEW,,0.01,WeatherDisplay:10.37,2013-08-29 08:57:00,
2013-08-29 05:02:00,65.3,65.0,30.44,NW,317,0.0,0.0,99,0.01,CLR,,0.01,WeatherDisplay:10.37,2013-08-29 09:02:00,
2013-08-29 05:07:00,65.3,65.0,30.44,NW,317,0.0,0.0,99,0.01,CLR,,0.01,WeatherDisplay:10.37,2013-08-29 09:07:00,
2013-08-29 05:12:00,65.1,64.8,30.44,NW,317,0.0,0.0,99,0.01,CLR,,0.01,WeatherDisplay:10.37,2013-08-29 09:12:00,
2013-08-29 05:17:00,65.0,64.7,30.44,NW,317,1.0,1.0,99,0.01,CLR,,0.01,WeatherDisplay:10.37,2013-08-29 09:17:00,
2013-08-29 05:22:00,65.0,64.7,30.44,NW,317,0.0,0.0,99,0.01,CLR,,0.01,WeatherDisplay:10.37,2013-08-29 09:22:00,
2013-08-29 05:27:00,64.9,64.6,30.44,NW,317,1.2,0.0,99,0.01,CLR,,0.01,WeatherDisplay:10.37,2013-08-29 09:27:00,
2013-08-29 05:32:00,64.9,64.6,30.44,NW,317,1.2,0.0,99,0.01,CLR,,0.01,WeatherDisplay:10.37,2013-08-29 09:32:00,
2013-08-29 05:37:00,64.9,64.6,30.44,NW,317,0.0,0.0,99,0.01,CLR,,0.01,WeatherDisplay:10.37,2013-08-29 09:37:00,
2013-08-29 05:42:00,65.1,64.8,30.44,NW,317,0.0,0.0,99,0.01,CLR,,0.01,WeatherDisplay:10.37,2013-08-29 09:42:00,
2013-08-29 05:47:00,64.7,64.4,30.44,NW,317,0.0,0.0,99,0.00,CLR,,0.01,WeatherDisplay:10.37,2013-08-29 09:47:00,
2013-08-29 05:52:00,64.7,64.4,30.44,NW,317,0.0,0.0,99,0.00,CLR,,0.01,WeatherDisplay:10.37,2013-08-29 09:52:00,
2013-08-29 05:57:00,64.9,64.6,30.44,NW,317,0.0,0.1,99,0.00,CLR,,0.01,WeatherDisplay:10.37,2013-08-29 09:57:00,
2013-08-29 06:02:00,65.0,64.7,30.44,NW,317,0.0,0.0,99,0.00,BKN,,0.01,WeatherDisplay:10.37,2013-08-29 10:02:00,
2013-08-29 06:07:00,64.9,64.6,30.44,NW,317,1.2,1.2,99,0.00,BKN,,0.01,WeatherDisplay:10.37,2013-08-29 10:07:00,
2013-08-29 06:12:00,65.1,64.8,30.44,NW,317,0.0,0.0,99,0.00,BKN,,0.01,WeatherDisplay:10.37,2013-08-29 10:12:00,
2013-08-29 06:17:00,65.2,64.9,30.44,NW,317,0.0,0.0,99,0.00,BKN,,0.01,WeatherDisplay:10.37,2013-08-29 10:17:00,
2013-08-29 06:22:00,65.3,65.0,30.45,NW,317,0.0,0.0,99,0.00,BKN,,0.01,WeatherDisplay:10.37,2013-08-29 10:22:00,
2013-08-29 06:27:00,65.5,65.2,30.45,NW,317,0.0,0.0,99,0.00,BKN,,0.01,WeatherDisplay:10.37,2013-08-29 10:27:00,
2013-08-29 06:32:00,65.6,65.3,30.45,West,265,1.2,1.2,99,0.00,BKN,,0.01,WeatherDisplay:10.37,2013-08-29 10:32:00,
2013-08-29 06:37:00,65.7,65.4,30.45,West,266,0.0,0.0,99,0.00,BKN,,0.01,WeatherDisplay:10.37,2013-08-29 10:37:00,
2013-08-29 06:42:00,65.9,65.6,30.45,West,266,0.0,0.0,99,0.00,BKN,,0.01,WeatherDisplay:10.37,2013-08-29 10:42:00,
2013-08-29 06:47:00,65.9,65.6,30.46,West,266,1.2,1.2,99,0.00,BKN,,0.01,WeatherDisplay:10.37,2013-08-29 10:47:00,
2013-08-29 06:52:00,65.9,65.6,30.46,West,266,0.0,0.0,99,0.00,BKN,,0.01,WeatherDisplay:10.37,2013-08-29 10:52:00,
2013-08-29 06:57:00,66.1,65.8,30.46,West,266,1.2,0.0,99,0.00,BKN,,0.01,WeatherDisplay:10.37,2013-08-29 10:57:00,
2013-08-29 07:02:00,66.2,65.9,30.46,West,266,0.0,0.0,99,0.00,CLR,,0.01,WeatherDisplay:10.37,2013-08-29 11:02:00,
2013-08-29 07:07:00,66.4,66.1,30.46,West,266,1.2,0.0,99,0.00,CLR,,0.01,WeatherDisplay:10.37,2013-08-29 11:07:00,
2013-08-29 07:12:00,66.4,66.1,30.47,West,266,0.0,0.0,99,0.00,CLR,,0.01,WeatherDisplay:10.37,2013-08-29 11:12:00,
2013-08-29 07:17:00,66.5,66.2,30.47,West,266,1.2,1.2,99,0.00,CLR,,0.01,WeatherDisplay:10.37,2013-08-29 11:17:00,
2013-08-29 07:22:00,66.6,66.3,30.47,West,274,1.2,1.2,99,0.00,CLR,,0.01,WeatherDisplay:10.37,2013-08-29 11:22:00,
2013-08-29 07:27:00,66.8,66.5,30.47,West,279,2.3,2.3,99,0.00,CLR,,0.01,WeatherDisplay:10.37,2013-08-29 11:27:00,
2013-08-29 07:32:00,66.8,66.5,30.48,WNW,302,2.3,2.3,99,0.00,CLR,,0.01,WeatherDisplay:10.37,2013-08-29 11:32:00,
2013-08-29 07:37:00,66.9,66.6,30.48,WNW,293,2.3,2.3,99,0.00,CLR,,0.01,WeatherDisplay:10.37,2013-08-29 11:37:00,
2013-08-29 07:42:00,67.0,66.7,30.48,WNW,293,1.2,0.0,99,0.00,CLR,,0.01,WeatherDisplay:10.37,2013-08-29 11:42:00,
2013-08-29 07:47:00,67.1,66.8,30.48,WNW,290,3.5,3.5,99,0.00,CLR,,0.01,WeatherDisplay:10.37,2013-08-29 11:47:00,
2013-08-29 07:52:00,67.2,66.9,30.48,WNW,302,3.5,3.5,99,0.00,CLR,,0.01,WeatherDisplay:10.37,2013-08-29 11:52:00,
2013-08-29 07:57:00,67.2,66.9,30.48,WNW,285,2.3,2.3,99,0.00,CLR,,0.01,WeatherDisplay:10.37,2013-08-29 11:57:00,
2013-08-29 08:02:00,67.3,67.0,30.49,WNW,302,2.3,2.3,99,0.00,CLR,,0.01,WeatherDisplay:10.37,2013-08-29 12:02:00,
2013-08-29 08:07:00,67.3,67.0,30.49,WNW,284,3.5,3.5,99,0.00,CLR,,0.01,WeatherDisplay:10.37,2013-08-29 12:07:00,
2013-08-29 08:12:00,67.5,67.2,30.49,NW,304,3.5,3.5,99,0.00,CLR,,0.01,WeatherDisplay:10.37,2013-08-29 12:12:00,
2013-08-29 08:17:00,67.6,67.3,30.49,WNW,290,3.5,3.5,99,0.00,CLR,,0.01,WeatherDisplay:10.37,2013-08-29 12:17:00,
2013-08-29 08:22:00,67.7,67.4,30.49,WNW,282,2.3,2.3,99,0.00,CLR,,0.01,WeatherDisplay:10.37,2013-08-29 12:22:00,
2013-08-29 08:27:00,68.0,67.7,30.49,WNW,289,3.5,3.5,99,0.00,CLR,,0.01,WeatherDisplay:10.37,2013-08-29 12:27:00,
2013-08-29 08:32:00,68.2,67.9,30.49,West,281,3.5,3.5,99,0.00,CLR,,0.01,WeatherDisplay:10.37,2013-08-29 12:32:00,
2013-08-29 08:37:00,68.2,67.9,30.49,WNW,300,4.6,4.6,99,0.00,CLR,,0.01,WeatherDisplay:10.37,2013-08-29 12:37:00,
2013-08-29 08:42:00,68.4,68.1,30.49,NW,314,3.5,3.5,99,0.00,CLR,,0.01,WeatherDisplay:10.37,2013-08-29 12:42:00,
2013-08-29 08:47:00,68.8,68.5,30.49,WNW,300,3.5,3.5,99,0.00,CLR,,0.01,WeatherDisplay:10.37,2013-08-29 12:47:00,
2013-08-29 08:52:00,68.8,68.5,30.49,WNW,297,3.5,3.5,99,0.00,CLR,,0.01,WeatherDisplay:10.37,2013-08-29 12:52:00,
2013-08-29 08:57:00,69.3,69.0,30.49,WNW,290,3.5,3.5,99,0.00,CLR,,0.01,WeatherDisplay:10.37,2013-08-29 12:57:00,
2013-08-29 09:02:00,69.4,69.1,30.49,WNW,288,3.5,3.5,99,0.00,CLR,,0.01,WeatherDisplay:10.37,2013-08-29 13:02:00,
2013-08-29 09:07:00,69.6,69.3,30.49,WNW,286,1.2,1.3,99,0.00,CLR,,0.01,WeatherDisplay:10.37,2013-08-29 13:07:00,
2013-08-29 09:12:00,69.7,69.4,30.49,WNW,296,3.5,3.5,99,0.00,CLR,,0.01,WeatherDisplay:10.37,2013-08-29 13:12:00,
2013-08-29 09:17:00,69.9,69.6,30.49,WNW,299,2.3,2.3,99,0.00,CLR,,0.01,WeatherDisplay:10.37,2013-08-29 13:17:00,
2013-08-29 09:22:00,70.4,70.1,30.49,WNW,290,2.3,2.3,99,0.00,CLR,,0.01,WeatherDisplay:10.37,2013-08-29 13:22:00,
2013-08-29 09:27:00,70.7,70.4,30.49,WNW,290,2.3,2.3,99,0.00,CLR,,0.01,WeatherDisplay:10.37,2013-08-29 13:27:00,
2013-08-29 09:32:00,71.0,70.7,30.49,WNW,296,2.3,2.3,99,0.00,CLR,,0.01,WeatherDisplay:10.37,2013-08-29 13:32:00,
2013-08-29 09:37:00,71.3,71.0,30.49,NW,309,3.0,3.0,99,0.00,CLR,,0.01,WeatherDisplay:10.37,2013-08-29 13:37:00,
2013-08-29 09:42:00,71.4,71.1,30.49,NW,307,1.2,1.2,99,0.00,CLR,,0.01,WeatherDisplay:10.37,2013-08-29 13:42:00,
2013-08-29 09:47:00,71.8,71.5,30.50,SSE,158,2.3,2.3,99,0.00,CLR,,0.01,WeatherDisplay:10.37,2013-08-29 13:47:00,
2013-08-29 09:52:00,72.4,72.1,30.50,NW,324,2.3,2.3,99,0.00,CLR,,0.01,WeatherDisplay:10.37,2013-08-29 13:52:00,
2013-08-29 09:57:00,73.0,72.7,30.50,NW,317,2.3,2.3,99,0.00,CLR,,0.01,WeatherDisplay:10.37,2013-08-29 13:57:00,
2013-08-29 10:03:00,73.3,73.0,30.50,NW,317,2.3,2.3,99,0.00,SCT,,0.01,WeatherDisplay:10.37,2013-08-29 14:03:00,
2013-08-29 10:08:00,73.3,73.0,30.50,WNW,297,2.3,2.3,99,0.00,SCT,,0.01,WeatherDisplay:10.37,2013-08-29 14:08:00,
2013-08-29 10:13:00,74.2,73.9,30.50,WSW,252,2.3,2.3,99,0.00,SCT,,0.01,WeatherDisplay:10.37,2013-08-29 14:13:00,
2013-08-29 10:18:00,74.7,74.1,30.50,NNW,343,1.2,1.2,98,0.00,SCT,,0.01,WeatherDisplay:10.37,2013-08-29 14:18:00,
2013-08-29 10:23:00,75.0,74.1,30.50,ENE,71,3.5,3.5,97,0.00,SCT,,0.01,WeatherDisplay:10.37,2013-08-29 14:23:00,
2013-08-29 10:28:00,75.0,73.2,30.50,West,279,3.5,3.5,94,0.00,SCT,,0.01,WeatherDisplay:10.37,2013-08-29 14:28:00,
2013-08-29 10:33:00,74.4,72.6,30.50,WNW,298,4.6,4.6,94,0.00,SCT,,0.01,WeatherDisplay:10.37,2013-08-29 14:33:00,
2013-08-29 10:38:00,74.6,73.1,30.50,WNW,297,0.0,0.1,95,0.00,SCT,,0.01,WeatherDisplay:10.37,2013-08-29 14:38:00,
2013-08-29 10:43:00,76.0,74.5,30.50,NW,309,2.3,2.3,95,0.00,SCT,,0.01,WeatherDisplay:10.37,2013-08-29 14:43:00,
2013-08-29 10:48:00,75.9,72.4,30.50,WNW,283,3.5,3.5,89,0.00,SCT,,0.01,WeatherDisplay:10.37,2013-08-29 14:48:00,
2013-08-29 10:53:00,75.9,72.4,30.50,WNW,291,3.5,3.5,89,0.00,SCT,,0.01,WeatherDisplay:10.37,2013-08-29 14:53:00,
2013-08-29 10:58:00,77.1,73.9,30.50,ENE,68,3.0,3.0,90,0.00,SCT,,0.01,WeatherDisplay:10.37,2013-08-29 14:58:00,
2013-08-29 11:03:00,77.7,73.5,30.50,ESE,115,1.2,1.2,87,0.00,BKN,,0.01,WeatherDisplay:10.37,2013-08-29 15:03:00,
2013-08-29 11:08:00,78.0,72.8,30.50,NNE,33,2.3,2.3,84,0.00,BKN,,0.01,WeatherDisplay:10.37,2013-08-29 15:08:00,
2013-08-29 11:13:00,78.5,72.9,30.50,NW,321,2.3,2.3,83,0.00,BKN,,0.01,WeatherDisplay:10.37,2013-08-29 15:13:00,
2013-08-29 11:18:00,79.2,74.3,30.50,WNW,295,1.2,1.2,85,0.00,BKN,,0.01,WeatherDisplay:10.37,2013-08-29 15:18:00,
2013-08-29 11:23:00,78.9,72.2,30.50,NW,320,2.0,2.0,80,0.00,BKN,,0.01,WeatherDisplay:10.37,2013-08-29 15:23:00,
2013-08-29 11:28:00,78.7,72.0,30.50,NW,321,2.3,2.3,80,0.00,BKN,,0.01,WeatherDisplay:10.37,2013-08-29 15:28:00,
2013-08-29 11:33:00,79.4,72.3,30.50,ESE,122,3.5,3.5,79,0.00,BKN,,0.01,WeatherDisplay:10.37,2013-08-29 15:33:00,
2013-08-29 11:38:00,80.1,74.5,30.50,WNW,303,1.2,1.2,83,0.00,BKN,,0.01,WeatherDisplay:10.37,2013-08-29 15:38:00,
2013-08-29 11:43:00,80.9,73.8,30.50,NNW,348,2.3,2.3,79,0.00,BKN,,0.01,WeatherDisplay:10.37,2013-08-29 15:43:00,
2013-08-29 11:48:00,81.0,74.2,30.50,ESE,119,4.0,4.0,80,0.00,BKN,,0.01,WeatherDisplay:10.37,2013-08-29 15:48:00,
2013-08-29 11:53:00,81.0,72.7,30.50,NNW,331,3.5,3.5,76,0.00,BKN,,0.01,WeatherDisplay:10.37,2013-08-29 15:53:00,
2013-08-29 11:58:00,81.1,72.0,30.50,NW,314,0.0,0.0,74,0.00,BKN,,0.01,WeatherDisplay:10.37,2013-08-29 15:58:00,
2013-08-29 12:03:00,81.4,72.7,30.50,ENE,72,3.5,3.5,75,0.00,BKN,,0.01,WeatherDisplay:10.37,2013-08-29 16:03:00,
2013-08-29 12:08:00,81.1,72.4,30.50,SE,126,3.0,3.0,75,0.00,BKN,,0.01,WeatherDisplay:10.37,2013-08-29 16:08:00,
2013-08-29 12:13:00,80.9,73.0,30.50,NW,319,3.5,3.5,77,0.00,BKN,,0.01,WeatherDisplay:10.37,2013-08-29 16:13:00,
2013-08-29 12:18:00,81.2,73.3,30.50,NW,309,2.3,2.3,77,0.00,BKN,,0.01,WeatherDisplay:10.37,2013-08-29 16:18:00,
2013-08-29 12:23:00,80.8,72.1,30.50,WNW,296,2.3,2.3,75,0.00,BKN,,0.01,WeatherDisplay:10.37,2013-08-29 16:23:00,
2013-08-29 12:28:00,81.2,74.4,30.50,NNW,328,1.2,1.2,80,0.00,BKN,,0.01,WeatherDisplay:10.37,2013-08-29 16:28:00,
2013-08-29 12:33:00,81.5,72.4,30.50,ESE,115,2.3,2.3,74,0.00,BKN,,0.01,WeatherDisplay:10.37,2013-08-29 16:33:00,
2013-08-29 12:38:00,81.5,74.4,30.50,NNW,332,3.5,3.5,79,0.00,BKN,,0.01,WeatherDisplay:10.37,2013-08-29 16:38:00,
2013-08-29 12:43:00,81.3,71.8,30.50,NNE,18,3.5,3.5,73,0.00,BKN,,0.01,WeatherDisplay:10.37,2013-08-29 16:43:00,
2013-08-29 12:48:00,80.9,72.6,30.50,East,101,2.0,2.0,76,0.00,BKN,,0.01,WeatherDisplay:10.37,2013-08-29 16:48:00,
2013-08-29 12:53:00,80.4,72.1,30.50,WNW,298,3.5,3.5,76,0.00,BKN,,0.01,WeatherDisplay:10.37,2013-08-29 16:53:00,
2013-08-29 12:58:00,80.5,73.0,30.50,WNW,294,2.3,2.3,78,0.00,BKN,,0.01,WeatherDisplay:10.37,2013-08-29 16:58:00,
2013-08-29 13:03:00,80.5,72.2,30.50,NNE,19,1.2,1.2,76,0.00,FEW,,0.01,WeatherDisplay:10.37,2013-08-29 17:03:00,
2013-08-29 13:08:00,80.6,73.9,30.50,NW,323,1.2,1.2,80,0.00,FEW,,0.01,WeatherDisplay:10.37,2013-08-29 17:08:00,
2013-08-29 13:13:00,80.8,72.5,30.50,NE,43,3.5,3.5,76,0.00,FEW,,0.01,WeatherDisplay:10.37,2013-08-29 17:13:00,
2013-08-29 13:18:00,80.7,72.8,30.50,NW,317,2.3,2.3,77,0.00,FEW,,0.01,WeatherDisplay:10.37,2013-08-29 17:18:00,
2013-08-29 13:23:00,81.6,74.1,30.50,West,263,1.2,1.2,78,0.00,FEW,,0.01,WeatherDisplay:10.37,2013-08-29 17:23:00,
2013-08-29 13:28:00,82.0,72.9,30.50,West,280,2.3,2.3,74,0.00,FEW,,0.01,WeatherDisplay:10.37,2013-08-29 17:28:00,
2013-08-29 13:33:00,81.9,73.6,30.50,NW,314,2.3,2.3,76,0.00,FEW,,0.01,WeatherDisplay:10.37,2013-08-29 17:33:00,
2013-08-29 13:38:00,82.1,72.2,30.50,NW,312,3.0,3.0,72,0.00,FEW,,0.01,WeatherDisplay:10.37,2013-08-29 17:38:00,
2013-08-29 13:43:00,82.3,72.8,30.50,WNW,283,2.3,2.3,73,0.00,FEW,,0.01,WeatherDisplay:10.37,2013-08-29 17:43:00,
2013-08-29 13:48:00,82.0,72.5,30.50,NE,34,2.3,2.3,73,0.00,FEW,,0.01,WeatherDisplay:10.37,2013-08-29 17:48:00,
2013-08-29 13:53:00,82.2,73.5,30.50,SE,130,1.2,1.2,75,0.00,FEW,,0.01,WeatherDisplay:10.37,2013-08-29 17:53:00,
2013-08-29 13:58:00,81.8,71.9,30.50,ENE,75,3.5,3.5,72,0.00,FEW,,0.01,WeatherDisplay:10.37,2013-08-29 17:58:00,
2013-08-29 14:03:00,81.9,72.8,30.50,WNW,294,2.3,2.3,74,0.00,FEW,,0.01,WeatherDisplay:10.37,2013-08-29 18:03:00,
2013-08-29 14:08:00,82.0,71.7,30.50,NE,37,3.5,3.5,71,0.00,FEW,,0.01,WeatherDisplay:10.37,2013-08-29 18:08:00,
2013-08-29 14:13:00,81.4,71.5,30.50,East,101,3.5,3.5,72,0.00,FEW,,0.01,WeatherDisplay:10.37,2013-08-29 18:13:00,
2013-08-29 14:18:00,80.7,72.0,30.50,WNW,293,2.3,2.3,75,0.00,FEW,,0.01,WeatherDisplay:10.37,2013-08-29 18:18:00,
2013-08-29 14:23:00,80.8,72.1,30.50,NW,313,2.3,2.3,75,0.00,FEW,,0.01,WeatherDisplay:10.37,2013-08-29 18:23:00,
2013-08-29 14:28:00,81.6,73.7,30.49,NW,306,2.3,2.3,77,0.00,FEW,,0.01,WeatherDisplay:10.37,2013-08-29 18:28:00,
2013-08-29 14:33:00,81.4,71.9,30.49,NW,320,2.3,2.3,73,0.00,FEW,,0.01,WeatherDisplay:10.37,2013-08-29 18:33:00,
2013-08-29 14:38:00,81.3,71.8,30.49,WNW,293,2.3,2.3,73,0.00,FEW,,0.01,WeatherDisplay:10.37,2013-08-29 18:38:00,
2013-08-29 14:43:00,81.9,73.6,30.49,WNW,293,1.2,1.2,76,0.00,FEW,,0.01,WeatherDisplay:10.37,2013-08-29 18:43:00,
2013-08-29 14:48:00,82.3,74.0,30.49,South,184,1.2,1.2,76,0.00,FEW,,0.01,WeatherDisplay:10.37,2013-08-29 18:48:00,
2013-08-29 14:53:00,82.7,73.2,30.49,NNW,336,1.2,1.2,73,0.00,FEW,,0.01,WeatherDisplay:10.37,2013-08-29 18:53:00,
2013-08-29 14:58:00,82.4,74.1,30.49,NNE,23,1.2,0.0,76,0.00,FEW,,0.01,WeatherDisplay:10.37,2013-08-29 18:58:00,
2013-08-29 15:03:00,82.7,74.4,30.49,West,272,3.5,3.5,76,0.00,FEW,,0.01,WeatherDisplay:10.37,2013-08-29 19:03:00,
2013-08-29 15:08:00,82.3,72.0,30.49,NNW,328,3.5,3.5,71,0.00,FEW,,0.01,WeatherDisplay:10.37,2013-08-29 19:08:00,
2013-08-29 15:13:00,82.1,74.6,30.49,North,352,2.3,2.3,78,0.00,FEW,,0.01,WeatherDisplay:10.37,2013-08-29 19:13:00,
2013-08-29 15:18:00,81.9,72.0,30.49,NW,315,3.5,3.5,72,0.00,FEW,,0.01,WeatherDisplay:10.37,2013-08-29 19:18:00,
2013-08-29 15:23:00,81.6,72.5,30.49,WNW,302,1.2,1.2,74,0.00,FEW,,0.01,WeatherDisplay:10.37,2013-08-29 19:23:00,
2013-08-29 15:28:00,81.5,71.6,30.49,NNE,24,3.5,3.5,72,0.00,FEW,,0.01,WeatherDisplay:10.37,2013-08-29 19:28:00,
2013-08-29 15:33:00,81.2,72.1,30.49,NW,324,2.3,2.3,74,0.00,FEW,,0.01,WeatherDisplay:10.37,2013-08-29 19:33:00,
2013-08-29 15:38:00,81.4,73.1,30.49,WNW,296,2.3,2.3,76,0.00,FEW,,0.01,WeatherDisplay:10.37,2013-08-29 19:38:00,
2013-08-29 15:43:00,81.5,71.6,30.49,WNW,298,2.3,2.3,72,0.00,FEW,,0.01,WeatherDisplay:10.37,2013-08-29 19:43:00,
2013-08-29 15:48:00,81.3,71.8,30.49,East,86,3.5,3.5,73,0.00,FEW,,0.01,WeatherDisplay:10.37,2013-08-29 19:48:00,
2013-08-29 15:53:00,81.3,73.0,30.49,SW,235,1.2,1.2,76,0.00,FEW,,0.01,WeatherDisplay:10.37,2013-08-29 19:53:00,
2013-08-29 15:58:00,81.7,72.6,30.49,NNW,327,2.3,2.3,74,0.00,FEW,,0.01,WeatherDisplay:10.37,2013-08-29 19:58:00,
2013-08-29 16:03:00,81.7,72.6,30.48,NNW,327,1.2,1.2,74,0.00,FEW,,0.01,WeatherDisplay:10.37,2013-08-29 20:03:00,
2013-08-29 16:08:00,81.4,72.3,30.48,NW,312,3.5,3.5,74,0.00,FEW,,0.01,WeatherDisplay:10.37,2013-08-29 20:08:00,
2013-08-29 16:13:00,81.2,72.5,30.48,NNE,18,2.3,2.3,75,0.00,FEW,,0.01,WeatherDisplay:10.37,2013-08-29 20:13:00,
2013-08-29 16:18:00,81.2,72.5,30.48,NNW,333,3.5,0.0,75,0.00,FEW,,0.01,WeatherDisplay:10.37,2013-08-29 20:18:00,
2013-08-29 16:23:00,81.6,72.9,30.48,NW,308,2.3,2.3,75,0.00,FEW,,0.01,WeatherDisplay:10.37,2013-08-29 20:23:00,
2013-08-29 16:28:00,81.3,71.4,30.48,ENE,69,3.5,3.5,72,0.00,FEW,,0.01,WeatherDisplay:10.37,2013-08-29 20:28:00,
2013-08-29 16:33:00,81.1,72.4,30.48,NW,305,1.2,1.2,75,0.00,FEW,,0.01,WeatherDisplay:10.37,2013-08-29 20:33:00,
2013-08-29 16:38:00,81.5,72.8,30.48,NE,53,3.5,3.5,75,0.00,FEW,,0.01,WeatherDisplay:10.37,2013-08-29 20:38:00,
2013-08-29 16:43:00,80.9,72.6,30.48,NW,320,3.5,3.5,76,0.00,FEW,,0.01,WeatherDisplay:10.37,2013-08-29 20:43:00,
2013-08-29 16:48:00,80.8,70.9,30.48,WNW,288,3.5,3.5,72,0.00,FEW,,0.01,WeatherDisplay:10.37,2013-08-29 20:48:00,
2013-08-29 16:53:00,81.2,72.9,30.48,WNW,295,2.3,2.3,76,0.00,FEW,,0.01,WeatherDisplay:10.37,2013-08-29 20:53:00,
2013-08-29 16:58:00,81.7,74.2,30.48,NW,306,2.3,2.3,78,0.00,FEW,,0.01,WeatherDisplay:10.37,2013-08-29 20:58:00,
2013-08-29 17:03:00,81.9,72.4,30.48,NNW,345,1.2,1.2,73,0.00,FEW,,0.01,WeatherDisplay:10.37,2013-08-29 21:03:00,
2013-08-29 17:08:00,81.8,70.6,30.48,WNW,288,2.3,2.3,69,0.00,FEW,,0.01,WeatherDisplay:10.37,2013-08-29 21:08:00,
2013-08-29 17:13:00,81.6,71.3,30.48,NW,307,2.3,2.3,71,0.00,FEW,,0.01,WeatherDisplay:10.37,2013-08-29 21:13:00,
2013-08-29 17:18:00,81.2,71.3,30.48,NNE,28,2.3,2.3,72,0.00,FEW,,0.01,WeatherDisplay:10.37,2013-08-29 21:18:00,
2013-08-29 17:23:00,81.0,71.1,30.48,NNW,328,1.2,1.2,72,0.00,FEW,,0.01,WeatherDisplay:10.37,2013-08-29 21:23:00,
2013-08-29 17:28:00,80.9,71.4,30.48,North,359,1.2,1.2,73,0.00,FEW,,0.01,WeatherDisplay:10.37,2013-08-29 21:28:00,
2013-08-29 17:33:00,80.7,71.2,30.48,SE,132,1.2,0.0,73,0.00,FEW,,0.01,WeatherDisplay:10.37,2013-08-29 21:33:00,
2013-08-29 17:38:00,81.1,71.2,30.48,SE,125,1.2,0.0,72,0.00,FEW,,0.01,WeatherDisplay:10.37,2013-08-29 21:38:00,
2013-08-29 17:43:00,81.4,70.7,30.48,NW,316,3.0,3.0,70,0.00,FEW,,0.01,WeatherDisplay:10.37,2013-08-29 21:43:00,
2013-08-29 17:48:00,81.1,69.1,30.48,NW,316,2.3,2.3,67,0.00,FEW,,0.01,WeatherDisplay:10.37,2013-08-29 21:48:00,
2013-08-29 17:53:00,81.0,69.9,30.48,WNW,300,1.2,1.2,69,0.00,FEW,,0.01,WeatherDisplay:10.37,2013-08-29 21:53:00,
2013-08-29 17:58:00,81.1,69.1,30.49,NW,309,1.2,1.2,67,0.00,FEW,,0.01,WeatherDisplay:10.37,2013-08-29 21:58:00,
2013-08-29 18:03:00,81.1,69.5,30.49,NW,310,0.0,0.0,68,0.00,FEW,,0.01,WeatherDisplay:10.37,2013-08-29 22:03:00,
2013-08-29 18:08:00,81.1,68.7,30.49,WSW,253,0.0,0.1,66,0.00,FEW,,0.01,WeatherDisplay:10.37,2013-08-29 22:08:00,
2013-08-29 18:13:00,81.2,68.8,30.49,WSW,253,1.2,1.2,66,0.00,FEW,,0.01,WeatherDisplay:10.37,2013-08-29 22:13:00,
2013-08-29 18:18:00,81.4,69.8,30.49,West,268,0.0,0.1,68,0.00,FEW,,0.01,WeatherDisplay:10.37,2013-08-29 22:18:00,
2013-08-29 18:23:00,81.5,70.3,30.49,West,268,0.0,0.0,69,0.00,FEW,,0.01,WeatherDisplay:10.37,2013-08-29 22:23:00,
2013-08-29 18:28:00,81.2,69.6,30.49,North,356,0.0,0.0,68,0.00,FEW,,0.01,WeatherDisplay:10.37,2013-08-29 22:28:00,
2013-08-29 18:33:00,80.7,70.4,30.49,NNW,346,0.0,0.0,71,0.00,FEW,,0.01,WeatherDisplay:10.37,2013-08-29 22:33:00,
2013-08-29 18:38:00,80.4,69.7,30.49,WNW,282,0.0,0.0,70,0.00,FEW,,0.01,WeatherDisplay:10.37,2013-08-29 22:38:00,
2013-08-29 18:43:00,79.7,69.5,30.49,WNW,282,0.0,0.0,71,0.00,FEW,,0.01,WeatherDisplay:10.37,2013-08-29 22:43:00,
2013-08-29 18:48:00,79.5,70.1,30.49,WNW,282,0.0,0.0,73,0.00,FEW,,0.01,WeatherDisplay:10.37,2013-08-29 22:48:00,
2013-08-29 18:53:00,79.7,69.9,30.48,WNW,282,0.0,0.0,72,0.00,FEW,,0.01,WeatherDisplay:10.37,2013-08-29 22:53:00,
2013-08-29 18:58:00,79.2,69.8,30.48,WNW,282,0.0,0.0,73,0.00,FEW,,0.01,WeatherDisplay:10.37,2013-08-29 22:58:00,
2013-08-29 19:03:00,78.5,69.5,30.49,WNW,282,0.0,0.0,74,0.00,FEW,,0.01,WeatherDisplay:10.37,2013-08-29 23:03:00,
2013-08-29 19:08:00,77.5,69.3,30.49,WNW,283,0.0,0.3,76,0.00,FEW,,0.01,WeatherDisplay:10.37,2013-08-29 23:08:00,
2013-08-29 19:13:00,76.6,68.8,30.49,WNW,283,1.2,1.2,77,0.00,FEW,,0.01,WeatherDisplay:10.37,2013-08-29 23:13:00,
2013-08-29 19:18:00,76.3,68.9,30.49,WNW,282,0.0,0.0,78,0.00,FEW,,0.01,WeatherDisplay:10.37,2013-08-29 23:18:00,
2013-08-29 19:23:00,76.3,68.9,30.48,WNW,282,0.0,0.0,78,0.00,FEW,,0.01,WeatherDisplay:10.37,2013-08-29 23:23:00,
2013-08-29 19:28:00,75.5,68.2,30.47,WNW,282,0.0,0.0,78,0.00,FEW,,0.01,WeatherDisplay:10.37,2013-08-29 23:28:00,
2013-08-29 19:33:00,74.7,68.1,30.47,WNW,282,1.2,0.0,80,0.00,FEW,,0.01,WeatherDisplay:10.37,2013-08-29 23:33:00,
2013-08-29 19:38:00,74.2,68.0,30.48,WNW,282,0.0,0.0,81,0.00,FEW,,0.01,WeatherDisplay:10.37,2013-08-29 23:38:00,
2013-08-29 19:43:00,73.3,67.8,30.48,WNW,282,0.0,0.0,83,0.00,FEW,,0.01,WeatherDisplay:10.37,2013-08-29 23:43:00,
2013-08-29 19:48:00,72.3,67.2,30.47,WNW,282,0.0,0.0,84,0.00,FEW,,0.01,WeatherDisplay:10.37,2013-08-29 23:48:00,
2013-08-29 19:53:00,71.3,66.9,30.47,WNW,282,0.0,0.0,86,0.00,FEW,,0.01,WeatherDisplay:10.37,2013-08-29 23:53:00,
2013-08-29 19:58:00,70.5,66.8,30.47,WNW,282,0.0,0.0,88,0.00,FEW,,0.01,WeatherDisplay:10.37,2013-08-29 23:58:00,
2013-08-29 20:03:00,69.7,66.3,30.47,WNW,283,0.0,0.0,89,0.00,FEW,,0.01,WeatherDisplay:10.37,2013-08-30 00:03:00,
2013-08-29 20:08:00,69.1,66.4,30.47,WNW,282,0.0,0.0,91,0.00,FEW,,0.01,WeatherDisplay:10.37,2013-08-30 00:08:00,
2013-08-29 20:13:00,68.6,66.2,30.47,WNW,283,0.0,0.0,92,0.00,FEW,,0.01,WeatherDisplay:10.37,2013-08-30 00:13:00,
2013-08-29 20:18:00,68.3,66.2,30.47,WNW,283,0.0,0.0,93,0.00,FEW,,0.01,WeatherDisplay:10.37,2013-08-30 00:18:00,
2013-08-29 20:23:00,67.8,65.7,30.47,WNW,282,0.0,0.0,93,0.00,FEW,,0.01,WeatherDisplay:10.37,2013-08-30 00:23:00,
2013-08-29 20:28:00,67.4,65.6,30.46,WNW,282,0.0,0.0,94,0.00,FEW,,0.01,WeatherDisplay:10.37,2013-08-30 00:28:00,
2013-08-29 20:33:00,67.0,65.2,30.47,WNW,282,0.0,0.0,94,0.00,FEW,,0.01,WeatherDisplay:10.37,2013-08-30 00:33:00,
2013-08-29 20:38:00,66.7,65.2,30.47,WNW,282,0.0,0.0,95,0.00,FEW,,0.01,WeatherDisplay:10.37,2013-08-30 00:38:00,
2013-08-29 20:43:00,66.5,65.0,30.47,WNW,282,0.0,0.0,95,0.00,FEW,,0.01,WeatherDisplay:10.37,2013-08-30 00:43:00,
2013-08-29 20:48:00,66.1,64.9,30.48,WNW,283,0.0,0.0,96,0.00,FEW,,0.01,WeatherDisplay:10.37,2013-08-30 00:48:00,
2013-08-29 20:53:00,66.0,64.8,30.48,WNW,283,0.0,0.0,96,0.00,FEW,,0.01,WeatherDisplay:10.37,2013-08-30 00:53:00,
2013-08-29 20:58:00,65.7,64.5,30.48,WNW,283,0.0,0.0,96,0.00,FEW,,0.01,WeatherDisplay:10.37,2013-08-30 00:58:00,
2013-08-29 21:03:00,66.0,65.1,30.49,WNW,282,0.0,0.0,97,0.00,CLR,,0.01,WeatherDisplay:10.37,2013-08-30 01:03:00,
2013-08-29 21:08:00,66.2,65.3,30.49,WNW,283,1.2,1.2,97,0.00,CLR,,0.01,WeatherDisplay:10.37,2013-08-30 01:08:00,
2013-08-29 21:13:00,66.1,65.2,30.49,WNW,283,0.0,0.0,97,0.00,CLR,,0.01,WeatherDisplay:10.37,2013-08-30 01:13:00,
2013-08-29 21:19:00,65.9,65.0,30.49,WNW,283,0.0,0.0,97,0.00,CLR,,0.01,WeatherDisplay:10.37,2013-08-30 01:19:00,
2013-08-29 21:24:00,65.8,64.9,30.49,WNW,283,0.0,0.0,97,0.00,CLR,,0.01,WeatherDisplay:10.37,2013-08-30 01:24:00,
2013-08-29 21:29:00,65.6,64.7,30.49,WNW,283,0.0,0.0,97,0.00,CLR,,0.01,WeatherDisplay:10.37,2013-08-30 01:29:00,
2013-08-29 21:34:00,65.2,64.3,30.49,WNW,282,0.0,0.0,97,0.00,CLR,,0.01,WeatherDisplay:10.37,2013-08-30 01:34:00,
2013-08-29 21:39:00,65.2,64.3,30.49,WNW,283,0.0,0.0,97,0.00,CLR,,0.01,WeatherDisplay:10.37,2013-08-30 01:39:00,
2013-08-29 21:44:00,65.2,64.3,30.49,WNW,283,0.0,0.0,97,0.00,CLR,,0.01,WeatherDisplay:10.37,2013-08-30 01:44:00,
2013-08-29 21:49:00,65.1,64.2,30.50,WNW,283,0.0,0.0,97,0.00,CLR,,0.01,WeatherDisplay:10.37,2013-08-30 01:49:00,
2013-08-29 21:54:00,65.1,64.2,30.50,WNW,283,0.0,0.0,97,0.00,CLR,,0.01,WeatherDisplay:10.37,2013-08-30 01:54:00,
2013-08-29 21:59:00,64.8,63.9,30.50,WNW,283,0.0,0.0,97,0.00,CLR,,0.01,WeatherDisplay:10.37,2013-08-30 01:59:00,
2013-08-29 22:04:00,64.5,63.6,30.50,WNW,283,0.0,0.0,97,0.00,CLR,,0.01,WeatherDisplay:10.37,2013-08-30 02:04:00,
2013-08-29 22:09:00,64.1,63.2,30.50,WNW,283,0.0,0.0,97,0.00,CLR,,0.01,WeatherDisplay:10.37,2013-08-30 02:09:00,
2013-08-29 22:14:00,64.2,63.3,30.50,WNW,283,0.0,0.0,97,0.00,CLR,,0.01,WeatherDisplay:10.37,2013-08-30 02:14:00,
2013-08-29 22:19:00,64.4,63.8,30.50,WNW,283,0.0,0.0,98,0.00,CLR,,0.01,WeatherDisplay:10.37,2013-08-30 02:19:00,
2013-08-29 22:24:00,64.2,63.6,30.49,WNW,283,0.0,0.0,98,0.00,CLR,,0.01,WeatherDisplay:10.37,2013-08-30 02:24:00,
2013-08-29 22:29:00,63.9,63.0,30.49,WNW,283,0.0,0.0,97,0.00,CLR,,0.01,WeatherDisplay:10.37,2013-08-30 02:29:00,
2013-08-29 22:34:00,64.1,63.5,30.49,WNW,283,1.2,1.2,98,0.00,CLR,,0.01,WeatherDisplay:10.37,2013-08-30 02:34:00,
2013-08-29 22:39:00,64.3,63.7,30.49,WNW,283,1.2,1.2,98,0.00,CLR,,0.01,WeatherDisplay:10.37,2013-08-30 02:39:00,
2013-08-29 22:44:00,64.1,63.5,30.49,WNW,283,0.0,0.0,98,0.00,CLR,,0.01,WeatherDisplay:10.37,2013-08-30 02:44:00,
2013-08-29 22:49:00,63.7,63.1,30.49,WNW,283,0.0,0.0,98,0.00,CLR,,0.01,WeatherDisplay:10.37,2013-08-30 02:49:00,
2013-08-29 22:54:00,63.4,62.5,30.49,WNW,283,1.2,1.2,97,0.00,CLR,,0.01,WeatherDisplay:10.37,2013-08-30 02:54:00,
2013-08-29 22:59:00,63.0,62.1,30.49,WNW,283,0.0,0.0,97,0.00,CLR,,0.01,WeatherDisplay:10.37,2013-08-30 02:59:00,
2013-08-29 23:04:00,62.7,61.8,30.49,WNW,283,0.0,0.0,97,0.00,CLR,,0.01,WeatherDisplay:10.37,2013-08-30 03:04:00,
2013-08-29 23:09:00,62.7,61.8,30.49,WNW,283,0.0,0.0,97,0.00,CLR,,0.01,WeatherDisplay:10.37,2013-08-30 03:09:00,
2013-08-29 23:14:00,62.9,62.3,30.49,WNW,283,0.0,0.0,98,0.00,CLR,,0.01,WeatherDisplay:10.37,2013-08-30 03:14:00,
2013-08-29 23:19:00,63.0,62.4,30.49,WNW,283,0.0,0.0,98,0.00,CLR,,0.01,WeatherDisplay:10.37,2013-08-30 03:19:00,
2013-08-29 23:24:00,62.9,62.3,30.49,WNW,283,0.0,0.0,98,0.00,CLR,,0.01,WeatherDisplay:10.37,2013-08-30 03:24:00,
2013-08-29 23:29:00,62.9,62.3,30.49,WNW,283,0.0,0.0,98,0.00,CLR,,0.01,WeatherDisplay:10.37,2013-08-30 03:29:00,
2013-08-29 23:34:00,63.0,62.4,30.49,WNW,283,0.0,0.0,98,0.00,CLR,,0.01,WeatherDisplay:10.37,2013-08-30 03:34:00,
2013-08-29 23:39:00,63.0,62.4,30.49,WNW,283,0.0,0.0,98,0.00,CLR,,0.01,WeatherDisplay:10.37,2013-08-30 03:39:00,
2013-08-29 23:44:00,62.6,62.0,30.49,WNW,283,0.0,0.0,98,0.00,CLR,,0.01,WeatherDisplay:10.37,2013-08-30 03:44:00,
2013-08-29 23:49:00,62.2,61.6,30.49,WNW,283,0.0,0.0,98,0.00,CLR,,0.01,WeatherDisplay:10.37,2013-08-30 03:49:00,
2013-08-29 23:54:00,62.2,61.6,30.48,WNW,283,0.0,0.0,98,0.00,CLR,,0.01,WeatherDisplay:10.37,2013-08-30 03:54:00,
2013-08-29 23:59:00,62.6,62.0,30.48,WNW,283,0.0,0.0,98,0.00,CLR,,0.01,WeatherDisplay:10.37,2013-08-30 03:59:00,